Location: Hamilton
(43.2500°N, 79.8330°W)
Time: 10:13:00
(UTC-04:00)

Amateur Radio Satellites - All Passes

Search period start: 30 March 2015 09:43
Search period end: 31 March 2015 09:43
Location: Hamilton, 43.2500°N, 79.8330°W

Satellite Date Start Highest point End Downlink Frequencies (MHz)
Time Altitude Azimuth
CANX-2 30 Mar 09:44:43 09:48:51 43° 98° (E) 09:52:59 2200.000
VERMONT LUNAR 30 Mar 09:47:08 09:50:12 33° 196° (SSW) 09:53:17 437.305
DELFI C3 30 Mar 09:56:38 09:57:27 11° 87° (E) 09:58:31 145.870
CUTE 1.7 + AOD 2 30 Mar 09:58:27 10:02:42 56° 100° (E) 10:06:56 437.475
DOVE 4 30 Mar 10:01:06 10:05:17 47° 99° (E) 10:09:43 437.250
DANDE 30 Mar 10:12:03 10:14:06 13° 266° (W) 10:16:06 436.750
POPSAT HIP 1 30 Mar 10:12:21 10:14:02 12° 63° (ENE) 10:15:54 437.405
GOMX 1 30 Mar 10:16:24 10:20:41 80° 285° (WNW) 10:25:10 467.674
AAUSAT CUBESAT 2 30 Mar 10:19:42 10:23:53 57° 100° (E) 10:28:03 437.432
NANOSAT C BR1 30 Mar 10:21:45 10:24:11 16° 65° (ENE) 10:26:47 145.865
BEESAT 2 30 Mar 10:23:02 10:26:36 29° 115° (ESE) 10:30:15 435.950
UKube-1 30 Mar 10:25:07 10:25:55 11° 87° (E) 10:27:01 .
HO-68 30 Mar 10:25:27 10:32:43 86° 106° (ESE) 10:39:56 435.675
SEEDS 30 Mar 10:26:24 10:30:42 86° 286° (WNW) 10:35:00 437.485
POLYITAN 1 30 Mar 10:26:25 10:29:11 18° 65° (ENE) 10:32:05 437.675
UNISAT 6 30 Mar 10:34:18 10:38:16 39° 71° (ENE) 10:42:19 437.425
PHONESAT 2.4 30 Mar 10:34:38 10:37:56 36° 196° (SSW) 10:41:13 2401.200-2431.200
DX 1 30 Mar 10:35:04 10:37:31 15° 90° (E) 10:40:08 434.975-435.025
TIGRISAT 30 Mar 10:43:59 10:48:04 48° 72° (ENE) 10:52:15 435.000
COMPASS 1 30 Mar 10:47:34 10:51:48 61° 286° (WNW) 10:55:58 437.405
Oscar 11 30 Mar 10:51:31 10:55:51 60° 100° (E) 11:00:10 145.826/435.025
BEESAT 3 30 Mar 10:58:26 11:02:31 81° 123° (ESE) 11:06:41 437.485
QB50P1 30 Mar 11:01:48 11:05:43 40° 71° (ENE) 11:09:42 145.935-145.965
50 SAT 30 Mar 11:02:55 11:04:44 13° 89° (E) 11:06:45 437.505
DUCHIFAT 1 30 Mar 11:03:07 11:07:03 40° 71° (ENE) 11:11:01 145.980
FUNcube-1 30 Mar 11:03:49 11:08:00 42° 98° (E) 11:12:15 145.935
UWE-3 30 Mar 11:10:20 11:14:43 63° 100° (E) 11:19:14 435.000/436.395/437.385
CINEMA 3 30 Mar 11:11:25 11:15:45 59° 286° (WNW) 11:20:16 145.822/145.860
BRITE-PL 30 Mar 11:14:05 11:16:25 14° 295° (WNW) 11:18:38 437.365/2234.400
ANTELSAT 30 Mar 11:14:35 11:18:51 76° 258° (WSW) 11:23:12 437.575/2403.000
QB50P2 30 Mar 11:16:42 11:20:51 60° 74° (ENE) 11:25:02 145.880/145.840
ZACube-1 30 Mar 11:16:56 11:21:18 60° 101° (E) 11:25:43 437.345
CUBEBUG 2 30 Mar 11:17:15 11:21:42 89° 107° (ESE) 11:26:16 437.445
VELOX 1 30 Mar 11:18:09 11:21:17 19° 92° (E) 11:24:32 145.980
CANX-2 30 Mar 11:21:26 11:24:31 19° 294° (WNW) 11:27:28 2200.000
AISAT 30 Mar 11:23:01 11:26:27 22° 93° (E) 11:29:58 437.250
VERMONT LUNAR 30 Mar 11:26:29 11:27:20 11° 211° (SSW) 11:28:05 437.305
DELFI C3 30 Mar 11:29:04 11:33:09 65° 285° (WNW) 11:37:12 145.870
CUTE 1.7 + AOD 2 30 Mar 11:35:40 11:38:14 15° 296° (WNW) 11:40:39 437.475
BUGSAT 1 30 Mar 11:39:30 11:43:39 76° 76° (ENE) 11:47:47 437.445
AIST 2 30 Mar 11:39:36 11:43:49 65° 121° (ESE) 11:48:05 435.215
DOVE 4 30 Mar 11:39:53 11:42:49 18° 294° (WNW) 11:45:42 437.250
POPSAT HIP 1 30 Mar 11:45:15 11:49:26 67° 258° (WSW) 11:53:40 437.405
ESTCUBE 1 30 Mar 11:55:27 11:59:13 26° 94° (E) 12:03:00 437.505/2401.250
NANOSAT C BR1 30 Mar 11:55:35 11:59:41 51° 260° (W) 12:03:49 145.865
AAUSAT CUBESAT 2 30 Mar 11:56:43 11:59:07 14° 296° (WNW) 12:01:20 437.432
UKube-1 30 Mar 11:58:21 12:02:41 72° 286° (WNW) 12:06:58 .
HUMSAT D 30 Mar 12:00:36 12:04:54 90° 241° (WSW) 12:09:11 437.325/437.525
POLYITAN 1 30 Mar 12:00:48 12:04:51 43° 262° (W) 12:08:53 437.675
BEESAT 2 30 Mar 12:00:59 12:04:43 31° 314° (NW) 12:08:27 435.950
DX 1 30 Mar 12:09:55 12:14:09 51° 288° (WNW) 12:18:20 434.975-435.025
UNISAT 6 30 Mar 12:12:08 12:15:17 19° 269° (W) 12:18:20 437.425
PHONESAT 2.4 30 Mar 12:14:12 12:15:43 12° 211° (SSW) 12:17:11 2401.200-2431.200
HO-68 30 Mar 12:14:30 12:19:41 21° 305° (NW) 12:24:37 435.675
TIGRISAT 30 Mar 12:22:32 12:25:12 16° 270° (W) 12:27:43 435.000
Oscar 11 30 Mar 12:29:08 12:31:37 15° 296° (WNW) 12:33:56 145.826/435.025
YUBILEINY 30 Mar 12:31:52 12:35:45 14° 76° (ENE) 12:40:14 435.215
50 SAT 30 Mar 12:36:05 12:40:02 52° 287° (WNW) 12:43:57 437.505
BEESAT 3 30 Mar 12:38:40 12:41:09 15° 322° (NW) 12:43:35 437.485
QB50P1 30 Mar 12:38:50 12:41:49 18° 268° (W) 12:44:42 145.935-145.965
DUCHIFAT 1 30 Mar 12:40:09 12:43:07 18° 269° (W) 12:45:57 145.980
FUNcube-1 30 Mar 12:40:51 12:44:06 20° 293° (WNW) 12:47:16 145.935
TISAT 1 30 Mar 12:43:20 12:45:51 16° 91° (E) 12:48:32 437.305
UWE-3 30 Mar 12:48:24 12:50:52 14° 296° (WNW) 12:53:11 435.000/436.395/437.385
CUBEBUG 1 30 Mar 12:50:52 12:55:13 89° 100° (E) 12:59:33 437.445
VELOX 1 30 Mar 12:53:56 12:58:05 41° 289° (WNW) 13:02:12 145.980
ZACube-1 30 Mar 12:54:43 12:57:16 15° 296° (WNW) 12:59:41 437.345
QB50P2 30 Mar 12:55:22 12:57:14 12° 272° (W) 12:58:53 145.880/145.840
SPROUT 30 Mar 12:56:30 13:00:08 27° 95° (E) 13:03:48 437.525
CUBEBUG 2 30 Mar 12:56:55 12:57:50 10° 298° (WNW) 12:58:31 437.445
AISAT 30 Mar 12:59:09 13:03:11 35° 290° (WNW) 13:07:10 437.250
Oscar 19 30 Mar 13:06:20 13:10:45 31° 67° (ENE) 13:15:15 437.125/150
AIST 2 30 Mar 13:19:47 13:22:52 18° 321° (NW) 13:25:53 435.215
Gurwin Techsat 1B 30 Mar 13:31:26 13:34:24 16° 60° (ENE) 13:37:34 435.225
ESTCUBE 1 30 Mar 13:32:05 13:36:08 32° 291° (WNW) 13:40:06 437.505/2401.250
O/OREOS (USA 219) 30 Mar 13:44:51 13:49:03 35° 59° (ENE) 13:53:13 437.305
SWISSCUBE 30 Mar 13:56:50 14:00:03 18° 91° (E) 14:03:26 437.505
BEESAT 30 Mar 13:59:38 14:02:49 18° 91° (E) 14:06:10 436.000
ITAMSAT 1 30 Mar 14:13:35 14:18:28 43° 70° (ENE) 14:23:25 435.822/435.867
TISAT 1 30 Mar 14:17:56 14:21:57 45° 288° (WNW) 14:25:58 437.305
YUBILEINY 30 Mar 14:22:26 14:31:11 74° 94° (E) 14:40:01 435.215
JAS-2 30 Mar 14:22:52 14:24:20 11° 47° (NE) 14:26:16 435.910
PCSat 30 Mar 14:28:13 14:32:36 27° 109° (ESE) 14:37:08 145.827
SPROUT 30 Mar 14:32:30 14:36:12 28° 291° (WNW) 14:39:50 437.525
Oscar 19 30 Mar 14:45:25 14:50:04 34° 264° (W) 14:54:42 437.125/150
ITUPSAT 1 30 Mar 14:46:10 14:50:51 51° 99° (E) 14:55:31 437.325
AO-7 30 Mar 14:51:06 14:57:40 28° 55° (NE) 15:04:25 29.400- 29.500
HORYU 2 30 Mar 15:03:23 15:06:45 22° 66° (ENE) 15:10:15 437.375
Gurwin Techsat 1B 30 Mar 15:08:28 15:13:47 79° 256° (WSW) 15:19:09 435.225
AIST 1 30 Mar 15:10:49 15:14:33 28° 73° (ENE) 15:18:17
O/OREOS (USA 219) 30 Mar 15:24:36 15:28:20 24° 256° (WSW) 15:31:56 437.305
KKS-1 30 Mar 15:26:48 15:30:29 26° 94° (E) 15:34:15 437.445
SWISSCUBE 30 Mar 15:33:38 15:38:17 50° 288° (WNW) 15:42:52 437.505
BEESAT 30 Mar 15:36:22 15:41:02 51° 288° (WNW) 15:45:39 436.000
ITAMSAT 1 30 Mar 15:53:52 15:58:11 25° 267° (W) 16:02:24 435.822/435.867
STARS 30 Mar 15:55:56 15:59:55 33° 97° (E) 16:03:56 437.465
JAS-2 30 Mar 16:00:56 16:07:35 48° 67° (ENE) 16:14:56 435.910
PCSat 30 Mar 16:10:34 16:15:48 47° 307° (NW) 16:21:04 145.827
YUBILEINY 30 Mar 16:21:50 16:29:03 26° 297° (WNW) 16:36:01 435.215
ITUPSAT 1 30 Mar 16:24:56 16:28:25 20° 296° (WNW) 16:31:46 437.325
HORYU 2 30 Mar 16:39:05 16:43:14 38° 263° (W) 16:47:23 437.375
AO-7 30 Mar 16:41:30 16:49:49 75° 254° (WSW) 16:58:09 29.400- 29.500
AIST 1 30 Mar 16:48:36 16:52:08 24° 271° (W) 16:55:33
KKS-1 30 Mar 17:03:13 17:07:10 31° 291° (WNW) 17:11:04 437.445
MOZHAYETS 4 30 Mar 17:10:18 17:13:43 21° 91° (E) 17:17:15
STARS 30 Mar 17:32:40 17:36:16 24° 293° (WNW) 17:39:47 437.465
BEESAT 3 30 Mar 17:40:25 17:41:50 12° 33° (NNE) 17:43:21 437.485
JAS-2 30 Mar 17:46:24 17:52:49 37° 268° (W) 17:59:44 435.910
M-CUBED/EXP-1 PRIME 30 Mar 17:58:01 18:01:32 20° 96° (E) 18:05:07 437.505
PCSat 30 Mar 17:58:55 18:00:42 11° 330° (NNW) 18:02:18 145.827
SO-50 30 Mar 18:05:55 18:07:35 12° 108° (ESE) 18:09:32 436.795
CUTE-I 30 Mar 18:22:35 18:27:48 56° 71° (ENE) 18:33:04 437.470
Cubesat XI-IV 30 Mar 18:23:08 18:28:22 57° 72° (ENE) 18:33:39 437.490
AIST 2 30 Mar 18:24:06 18:25:13 11° 32° (NNE) 18:26:28 435.215
AO-7 30 Mar 18:39:44 18:44:13 14° 275° (W) 18:48:06 29.400- 29.500
BEESAT 2 30 Mar 18:41:18 18:44:55 28° 46° (NE) 18:48:31 435.950
GONETS M04 30 Mar 18:43:02 18:49:16 24° 81° (E) 18:55:52
MOZHAYETS 4 30 Mar 18:46:46 18:51:11 42° 289° (WNW) 18:55:32
CUBESAT XI-V 30 Mar 19:00:44 19:04:21 23° 92° (E) 19:08:02 437.345
AUBIESAT-1 30 Mar 19:06:14 19:11:07 84° 106° (ESE) 19:15:51 437.475
RS-15 30 Mar 19:07:32 19:17:43 50° 112° (ESE) 19:28:12 29.354- 29.394
HO-68 30 Mar 19:11:15 19:15:02 16° 52° (NE) 19:19:08 435.675
BEESAT 3 30 Mar 19:16:36 19:20:43 68° 53° (NE) 19:24:47 437.485
PRISM 30 Mar 19:17:13 19:20:35 24° 94° (E) 19:23:59 437.425
M-CUBED/EXP-1 PRIME 30 Mar 19:31:58 19:36:42 51° 293° (WNW) 19:41:18 437.505
SO-50 30 Mar 19:42:50 19:47:29 83° 305° (NW) 19:52:19 436.795
GOMX 1 30 Mar 19:50:44 19:52:34 13° 64° (ENE) 19:54:34 467.674
AIST 2 30 Mar 20:00:33 20:04:47 58° 53° (NE) 20:08:56 435.215
CUTE-I 30 Mar 20:04:20 20:08:18 20° 269° (W) 20:12:07 437.470
Cubesat XI-IV 30 Mar 20:04:59 20:08:55 20° 269° (W) 20:12:40 437.490
COMPASS 1 30 Mar 20:07:49 20:08:43 11° 62° (ENE) 20:09:49 437.405
STRAND 1 30 Mar 20:18:41 20:23:49 70° 103° (ESE) 20:28:53 437.568
BEESAT 2 30 Mar 20:19:21 20:23:06 32° 244° (WSW) 20:26:44 435.950
GONETS M04 30 Mar 20:36:35 20:45:17 76° 280° (W) 20:54:05
CUBESAT XI-V 30 Mar 20:37:39 20:41:57 38° 290° (WNW) 20:46:11 437.345
CANX-2 30 Mar 20:38:50 20:42:41 35° 71° (ENE) 20:46:36 2200.000
CINEMA 3 30 Mar 20:39:45 20:41:52 14° 64° (ENE) 20:44:09 145.822/145.860
AUBIESAT-1 30 Mar 20:42:38 20:45:19 15° 304° (NW) 20:47:49 437.475
BRITE-PL 30 Mar 20:46:00 20:50:39 74° 76° (ENE) 20:55:00 437.365/2234.400
CUSAT 1 30 Mar 20:46:53 20:48:08 13° 94° (E) 20:49:28 437.405
CUTE 1.7 + AOD 2 30 Mar 20:52:21 20:56:23 45° 72° (ENE) 21:00:29 437.475
PRISM 30 Mar 20:52:25 20:56:07 30° 291° (WNW) 20:59:43 437.425
HO-68 30 Mar 20:54:33 21:01:40 72° 70° (ENE) 21:08:51 435.675
BEESAT 3 30 Mar 20:56:36 20:58:17 12° 250° (WSW) 20:59:47 437.485
DOVE 4 30 Mar 21:08:11 21:12:22 53° 74° (ENE) 21:16:27 437.250
AAUSAT CUBESAT 2 30 Mar 21:11:37 21:15:33 43° 72° (ENE) 21:19:35 437.432
SEEDS 30 Mar 21:19:20 21:23:32 75° 76° (ENE) 21:27:47 437.485
RS-15 30 Mar 21:19:29 21:30:07 54° 316° (NW) 21:41:00 29.354- 29.394
UKube-1 30 Mar 21:21:10 21:22:46 12° 62° (ENE) 21:24:34 .
SO-50 30 Mar 21:25:48 21:28:51 16° 326° (NW) 21:31:51 436.795
GOMX 1 30 Mar 21:25:54 21:30:20 65° 259° (W) 21:34:34 467.674
DX 1 30 Mar 21:32:02 21:34:44 17° 64° (ENE) 21:37:34 434.975-435.025
COMPASS 1 30 Mar 21:39:39 21:43:50 79° 258° (WSW) 21:48:05 437.405
AIST 2 30 Mar 21:40:28 21:42:58 15° 249° (WSW) 21:45:17 435.215
DANDE 30 Mar 21:43:15 21:46:13 71° 100° (E) 21:48:52 436.750
Oscar 11 30 Mar 21:47:13 21:51:24 52° 73° (ENE) 21:55:38 145.826/435.025
STRAND 1 30 Mar 21:59:17 22:02:30 17° 299° (WNW) 22:05:31 437.568
FUNcube-1 30 Mar 22:01:02 22:04:49 36° 71° (ENE) 22:08:40 145.935
UWE-3 30 Mar 22:08:49 22:12:52 56° 74° (ENE) 22:16:58 435.000/436.395/437.385
ISS 30 Mar 22:13:45 22:15:57 17° 134° (SE) 22:18:13 145.825
ZACube-1 30 Mar 22:14:13 22:18:13 51° 73° (ENE) 22:22:17 437.345
CINEMA 3 30 Mar 22:14:37 22:18:44 54° 260° (W) 22:22:49 145.822/145.860
CANX-2 30 Mar 22:15:29 22:18:46 21° 268° (W) 22:21:58 2200.000
CUBEBUG 2 30 Mar 22:16:48 22:20:56 84° 80° (E) 22:25:08 437.445
VELOX 1 30 Mar 22:17:07 22:20:24 21° 66° (ENE) 22:23:48 145.980
DELFI C3 30 Mar 22:17:32 22:21:36 87° 77° (ENE) 22:25:44 145.870
AISAT 30 Mar 22:22:09 22:25:42 24° 67° (ENE) 22:29:18 437.250
BRITE-PL 30 Mar 22:28:26 22:29:43 11° 272° (W) 22:30:43 437.365/2234.400
CUSAT 1 30 Mar 22:29:21 22:30:52 14° 289° (WNW) 22:32:16 437.405
CUTE 1.7 + AOD 2 30 Mar 22:29:48 22:32:36 17° 270° (W) 22:35:16 437.475
GONETS M04 30 Mar 22:38:38 22:44:02 17° 305° (NW) 22:49:01
HO-68 30 Mar 22:44:37 22:50:08 22° 270° (W) 22:55:25 435.675
DOVE 4 30 Mar 22:48:21 22:50:33 13° 271° (W) 22:52:32 437.250
AAUSAT CUBESAT 2 30 Mar 22:48:42 22:51:28 17° 270° (W) 22:54:07 437.432
HUMSAT D 30 Mar 22:53:30 22:57:34 72° 76° (ENE) 23:01:42 437.325/437.525
UKube-1 30 Mar 22:54:03 22:58:23 74° 257° (WSW) 23:02:45 .
ESTCUBE 1 30 Mar 22:56:14 23:00:04 28° 68° (ENE) 23:03:59 437.505/2401.250
ANTELSAT 30 Mar 23:05:59 23:09:27 21° 92° (E) 23:13:05 437.575/2403.000
DX 1 30 Mar 23:06:22 23:10:38 51° 260° (W) 23:14:55 434.975-435.025
PCSat 30 Mar 23:14:14 23:18:57 30° 47° (NE) 23:23:44 145.827
50 SAT 30 Mar 23:22:53 23:26:47 78° 258° (WSW) 23:30:45 437.505
Oscar 11 30 Mar 23:25:25 23:27:58 15° 271° (W) 23:30:21 145.826/435.025
POPSAT HIP 1 30 Mar 23:30:25 23:33:17 18° 92° (E) 23:36:17 437.405
RS-15 30 Mar 23:37:01 23:45:51 26° 348° (NNW) 23:54:50 29.354- 29.394
TISAT 1 30 Mar 23:37:19 23:39:40 15° 64° (ENE) 23:42:10 437.305
FUNcube-1 30 Mar 23:38:18 23:41:21 19° 269° (W) 23:44:18 145.935
NANOSAT C BR1 30 Mar 23:40:03 23:43:23 23° 94° (E) 23:46:47 145.865
POLYITAN 1 30 Mar 23:45:28 23:49:04 27° 95° (E) 23:52:43 437.675
CUBEBUG 1 30 Mar 23:47:48 23:52:13 84° 76° (ENE) 23:56:38 437.445
UWE-3 30 Mar 23:47:59 23:49:53 12° 272° (W) 23:51:35 435.000/436.395/437.385
ISS 30 Mar 23:48:51 23:52:05 62° 330° (NNW) 23:55:19 145.825
SPROUT 30 Mar 23:52:00 23:55:28 25° 68° (ENE) 23:59:00 437.525
VELOX 1 30 Mar 23:52:34 23:56:46 40° 262° (W) 00:00:57 145.980
ZACube-1 30 Mar 23:52:49 23:55:01 14° 271° (W) 23:57:02 437.345
AISAT 30 Mar 23:58:07 00:02:10 34° 263° (W) 00:06:12 437.250
UNISAT 6 31 Mar 00:01:11 00:05:48 78° 102° (ESE) 00:10:28 437.425
TIGRISAT 31 Mar 00:10:44 00:15:20 86° 284° (WNW) 00:20:00 435.000
QB50P1 31 Mar 00:21:23 00:25:36 66° 101° (E) 00:29:49 145.935-145.965
DUCHIFAT 1 31 Mar 00:22:21 00:26:33 66° 101° (ESE) 00:30:45 145.980
YUBILEINY 31 Mar 00:31:39 00:39:43 39° 69° (ENE) 00:47:49 435.215
ESTCUBE 1 31 Mar 00:32:51 00:36:54 30° 265° (W) 00:40:55 437.505/2401.250
QB50P2 31 Mar 00:36:45 00:41:02 82° 282° (WNW) 00:45:16 145.880/145.840
ANTELSAT 31 Mar 00:42:06 00:46:26 41° 289° (WNW) 00:50:47 437.575/2403.000
BUGSAT 1 31 Mar 00:56:13 01:00:14 70° 285° (WNW) 01:04:15 437.445
PCSat 31 Mar 00:57:24 01:02:36 46° 246° (WSW) 01:07:44 145.827
SWISSCUBE 31 Mar 01:04:23 01:08:13 25° 66° (ENE) 01:12:10 437.505
POPSAT HIP 1 31 Mar 01:05:24 01:09:24 40° 289° (WNW) 01:13:22 437.405
BEESAT 31 Mar 01:07:06 01:10:54 24° 66° (ENE) 01:14:49 436.000
TISAT 1 31 Mar 01:10:58 01:15:06 53° 260° (W) 01:19:14 437.305
NANOSAT C BR1 31 Mar 01:15:31 01:19:18 32° 290° (WNW) 01:23:03 145.865
POLYITAN 1 31 Mar 01:21:19 01:24:59 28° 291° (WNW) 01:28:34 437.675
ISS 31 Mar 01:26:23 01:28:57 21° 349° (N) 01:31:30 145.825
SPROUT 31 Mar 01:27:37 01:31:28 31° 264° (W) 01:35:16 437.525
UNISAT 6 31 Mar 01:39:58 01:42:04 13° 298° (WNW) 01:43:59 437.425
TIGRISAT 31 Mar 01:50:26 01:51:28 10° 299° (WNW) 01:52:14 435.000
RS-15 31 Mar 01:53:31 02:02:59 30° 22° (NNE) 02:12:57 29.354- 29.394
ITUPSAT 1 31 Mar 01:53:53 01:58:39 66° 73° (ENE) 02:03:28 437.325
QB50P1 31 Mar 01:59:04 02:01:01 13° 297° (WNW) 02:02:47 145.935-145.965
DUCHIFAT 1 31 Mar 02:00:00 02:01:55 13° 297° (WNW) 02:03:39 145.980
KKS-1 31 Mar 02:26:10 02:29:53 27° 68° (ENE) 02:33:41 437.445
ITAMSAT 1 31 Mar 02:27:02 02:29:24 13° 87° (E) 02:32:02 435.822/435.867
YUBILEINY 31 Mar 02:28:24 02:36:48 50° 271° (W) 02:45:04 435.215
SO-50 31 Mar 02:33:34 02:37:18 21° 38° (NE) 02:41:07 436.795
SWISSCUBE 31 Mar 02:41:25 02:45:55 39° 263° (W) 02:50:25 437.505
BEESAT 31 Mar 02:44:04 02:48:35 39° 263° (W) 02:53:05 436.000
STARS 31 Mar 02:54:01 02:57:57 34° 69° (ENE) 03:01:55 437.465
Oscar 19 31 Mar 02:55:08 03:00:20 78° 102° (ESE) 03:05:32 437.125/150
ISS 31 Mar 03:03:37 03:06:08 20° 10° (N) 03:08:39 145.825
Gurwin Techsat 1B 31 Mar 03:23:50 03:28:46 38° 97° (E) 03:33:43 435.225
ITUPSAT 1 31 Mar 03:34:26 03:37:06 14° 272° (W) 03:39:32 437.325
AIST 1 31 Mar 03:42:29 03:45:13 17° 87° (E) 03:48:07
O/OREOS (USA 219) 31 Mar 03:58:11 04:02:15 33° 105° (ESE) 04:06:24 437.305
KKS-1 31 Mar 04:02:34 04:06:29 29° 265° (W) 04:10:22 437.445
ITAMSAT 1 31 Mar 04:04:24 04:09:37 77° 285° (WNW) 04:14:46 435.822/435.867
RS-15 31 Mar 04:06:28 04:17:54 71° 51° (NE) 04:29:53 29.354- 29.394
SO-50 31 Mar 04:13:26 04:18:24 72° 238° (WSW) 04:23:18 436.795
MOZHAYETS 4 31 Mar 04:13:27 04:17:00 23° 66° (ENE) 04:20:40
AUBIESAT-1 31 Mar 04:22:54 04:25:16 15° 56° (NE) 04:27:52 437.475
HORYU 2 31 Mar 04:29:07 04:33:18 37° 97° (E) 04:37:29 437.375
STARS 31 Mar 04:30:58 04:34:30 23° 266° (W) 04:37:58 437.465
Oscar 19 31 Mar 04:36:06 04:39:08 15° 299° (WNW) 04:41:57 437.125/150
ISS 31 Mar 04:39:49 04:43:02 58° 30° (NNE) 04:46:13 145.825
AO-7 31 Mar 04:42:13 04:49:35 35° 96° (E) 04:57:03 29.400- 29.500
M-CUBED/EXP-1 PRIME 31 Mar 04:47:28 04:50:58 28° 62° (ENE) 04:54:48 437.505
GONETS M04 31 Mar 04:51:50 04:54:49 12° 50° (NE) 04:58:25
JAS-2 31 Mar 04:54:32 05:01:41 41° 93° (E) 05:08:21 435.910
Gurwin Techsat 1B 31 Mar 05:04:03 05:08:38 29° 294° (WNW) 05:13:08 435.225
AIST 1 31 Mar 05:18:21 05:22:34 44° 283° (WNW) 05:26:47
O/OREOS (USA 219) 31 Mar 05:37:44 05:41:44 28° 304° (WNW) 05:45:41 437.305
VERMONT LUNAR 31 Mar 05:44:10 05:47:01 26° 160° (SSE) 05:49:54 437.305
ITAMSAT 1 31 Mar 05:46:43 05:48:20 11° 303° (WNW) 05:49:41 435.822/435.867
MOZHAYETS 4 31 Mar 05:49:41 05:54:02 40° 263° (W) 05:58:24
AUBIESAT-1 31 Mar 05:55:28 05:59:31 65° 254° (WSW) 06:03:58 437.475
STRAND 1 31 Mar 05:59:09 06:02:04 16° 61° (ENE) 06:05:10 437.568
CUBESAT XI-V 31 Mar 06:05:11 06:09:03 26° 67° (ENE) 06:12:59 437.345
HORYU 2 31 Mar 06:06:10 06:09:46 23° 294° (WNW) 06:13:18 437.375
PRISM 31 Mar 06:08:49 06:12:01 22° 67° (ENE) 06:15:19 437.425
ISS 31 Mar 06:16:50 06:19:10 18° 225° (SW) 06:21:28 145.825
RS-15 31 Mar 06:19:33 06:29:46 37° 252° (WSW) 06:40:01 29.354- 29.394
M-CUBED/EXP-1 PRIME 31 Mar 06:22:11 06:25:48 30° 261° (W) 06:29:41 437.505
AO-7 31 Mar 06:34:42 06:42:45 56° 295° (WNW) 06:50:44 29.400- 29.500
JAS-2 31 Mar 06:39:28 06:46:47 45° 294° (WNW) 06:53:30 435.910
CUTE-I 31 Mar 06:39:32 06:43:18 20° 91° (E) 06:47:13 437.470
PHONESAT 2.4 31 Mar 06:39:34 06:42:40 29° 161° (SSE) 06:45:47 2401.200-2431.200
Cubesat XI-IV 31 Mar 06:40:14 06:44:04 21° 91° (E) 06:48:04 437.490
GONETS M04 31 Mar 06:45:30 06:54:11 59° 76° (ENE) 07:02:54
CUSAT 1 31 Mar 07:18:47 07:22:13 22° 74° (ENE) 07:26:35 437.405
VERMONT LUNAR 31 Mar 07:21:08 07:24:24 52° 176° (S) 07:27:41 437.305
STRAND 1 31 Mar 07:35:35 07:40:44 75° 257° (WSW) 07:45:54 437.568
CUBESAT XI-V 31 Mar 07:42:03 07:46:23 35° 264° (W) 07:50:40 437.345
PRISM 31 Mar 07:43:27 07:47:20 35° 263° (W) 07:51:13 437.425
PHONESAT 2.4 31 Mar 08:17:15 08:20:42 54° 177° (S) 08:24:10 2401.200-2431.200
CUTE-I 31 Mar 08:18:36 08:23:48 55° 289° (WNW) 08:28:57 437.470
DANDE 31 Mar 08:19:11 08:23:14 61° 80° (E) 08:28:43 436.750
Cubesat XI-IV 31 Mar 08:19:23 08:24:34 54° 289° (WNW) 08:29:43 437.490
HO-68 31 Mar 08:24:59 08:26:30 11° 83° (E) 08:28:38 435.675
JAS-2 31 Mar 08:28:57 08:29:58 10° 314° (NW) 08:30:33 435.910
AO-7 31 Mar 08:29:55 08:33:55 14° 316° (NW) 08:37:32 29.400- 29.500
GONETS M04 31 Mar 08:43:03 08:50:37 32° 276° (W) 08:58:00
BRITE-PL 31 Mar 08:50:03 08:53:01 19° 92° (E) 08:56:12 437.365/2234.400
VERMONT LUNAR 31 Mar 08:58:42 09:01:52 40° 193° (SSW) 09:05:02 437.305
CUSAT 1 31 Mar 09:00:48 09:05:00 41° 263° (W) 09:10:28 437.405
SEEDS 31 Mar 09:04:50 09:06:25 12° 87° (E) 09:08:13 437.485
DOVE 4 31 Mar 09:07:11 09:09:10 13° 89° (E) 09:11:26 437.250
COMPASS 1 31 Mar 09:23:29 09:26:02 16° 90° (E) 09:28:46 437.405
GOMX 1 31 Mar 09:26:17 09:30:05 30° 96° (E) 09:34:05 467.674
TIGRISAT 31 Mar 09:38:35 09:38:48 10° 60° (ENE) 09:39:15 435.000
